User: anonymous   Login
Location: Unspecified
(0.0000°N, 0.0000°E)
Time: 23:55:05
(UTC+00:00)
Language:

STARLINK-6265 - Orbit

View from above orbital plane
View from above orbital plane
View from above satellite
View from above satellite

Ground track
Ground track

The orbit is defined by the following mean orbital elements,

1 56557U          26145.46468142 +.00000000 +00000-0 +18568-4 0 00006
2 56557  43.0048 150.0113 0001480 281.6471  78.4214 15.27576253    01
Epoch (UTC): 25 May 2026 11:09:08
Eccentricity: 0.0001480
inclination: 43.0048°
perigee height: 482 km
apogee height: 484 km
right ascension of ascending node: 150.0113°
argument of perigee: 281.6471°
revolutions per day: 15.27576253
mean anomaly at epoch: 78.4214°

The dashed part of the orbit path shows where the satellite is in the earth's shadow,  

DLR